Flag for Canada Weather past 2 weeks in London, Ontario, Canada

Now
63 °F

Passing clouds.


Feels Like: 63 °F
Forecast: 61 / 80 °F
Wind: No wind

Location: London Weather Station

Current Time: Aug 22, 2014 at 4:48:22 AM

Latest Report: Aug 22, 2014 at 4:00 AM


Visibility: 8 mi

Pressure: 29.96 "Hg

Humidity: 100%

Dew point: 63 °F

Location of LondonLocation

Historic Weather in London — Graph

°F

London temperature yesterday

Maximum temperature yesterday: 77 °F (at 2:00 PM)
Minimum temperature yesterday: 63 °F (at 5:00 AM)
Average temperature yesterday: 69 °F

Past Weeks' High & Low Weather Summary

 TemperatureHumidityPressure
High81 °F (Aug 10, 2:00 PM)100% (Aug 7, 6:00 AM)30.19 "Hg (Aug 7, 6:00 AM)
Low50 °F (Aug 8, 5:00 AM)42% (Aug 7, 3:00 PM)29.67 "Hg (Aug 12, 4:00 AM)
Average65 °F81%29.96 "Hg
* Reported Aug 7 3:00 AM — Aug 22 3:00 AM, London, Weather by CustomWeather, © 2014

Note: Actual official high and low records may vary slightly from our data, if they occured in-between our weather recording intervals... More about our weather records

Advertising

London weather history for previous 24 hours

 ConditionsComfort  
Time TempWeatherWind HumidityBarometerVisibility
3:00 AM
Aug 22
63 °FPassing clouds.2 mph100%29.98 "Hg10 mi
2:00 AM64 °FPassing clouds.2 mph94%29.99 "Hg10 mi
1:00 AM63 °FPassing clouds.2 mph94%29.99 "Hg10 mi
12:00 AM63 °FPassing clouds.2 mph100%29.98 "Hg15 mi
11:00 PM
Aug 21
66 °FPassing clouds.2 mph94%29.99 "Hg15 mi
10:00 PM68 °FPassing clouds.2 mph88%29.98 "Hg15 mi
9:00 PM68 °FBroken clouds.2 mph88%29.98 "Hg15 mi
8:00 PM72 °FPartly sunny.5 mph83%29.98 "Hg15 mi
7:00 PM72 °FPartly sunny.6 mph83%29.98 "Hg15 mi
6:00 PM75 °FBroken clouds.6 mph74%29.97 "Hg15 mi
5:00 PM77 °FBroken clouds.9 mph69%29.96 "Hg15 mi
4:00 PM77 °FScattered clouds.9 mph74%29.96 "Hg15 mi
3:00 PM77 °FPartly sunny.12 mph69%29.98 "Hg15 mi
2:00 PM77 °FPartly sunny.9 mph69%29.99 "Hg15 mi
1:00 PM73 °FPartly sunny.5 mph74%29.99 "Hg15 mi
12:00 PM72 °FPartly sunny.2 mph73%29.99 "Hg12 mi
11:00 AM70 °FScattered clouds.5 mph83%30.00 "Hg10 mi
10:00 AM70 °FScattered clouds.3 mph88%30.00 "Hg10 mi
9:47 AM68 °FBroken clouds.3 mph94%29.99 "Hg8 mi
9:00 AM66 °FFog.2 mph100%30.00 "Hg3 mi
8:00 AM64 °FFog.3 mph100%29.99 "Hg1 mi
7:00 AM64 °FFog.5 mph100%29.98 "Hg3 mi
6:00 AM63 °FFog.2 mph100%29.95 "Hg3 mi
5:00 AM63 °FFog.2 mph100%29.94 "Hg6 mi
4:00 AM64 °FClear.3 mph94%29.93 "Hg8 mi
Weather by CustomWeather, © 2014

See weather overviewHow to use our weather pages